User: anonymous   Login
Location: Ballingbuur
(53.0000°N, 5.7667°E)
Time: 21:19:53
(UTC+00:00)
Language:

Cosmos 1500 Rocket - Orbit

View from above orbital plane
View from above orbital plane
View from above satellite
View from above satellite

Ground track
Ground track

The orbit data is extracted from the following two-line orbital elements,

1 14373U 83099B   21055.47340646  .00000112  00000-0  10459-4 0  9991
2 14373  82.5373  64.3650 0021749  96.5087  55.4409 14.83817154999703
Epoch (UTC): 24 February 2021 11:21:42
Eccentricity: 0.0021749
inclination: 82.5373°
perigee height: 602 km
apogee height: 632 km
right ascension of ascending node: 64.3650°
argument of perigee: 96.5087°
revolutions per day: 14.83817154
mean anomaly at epoch: 55.4409°
orbit number at epoch: 99970

The dashed part of the orbit path shows where the satellite is in the earth's shadow,  

DLR